Theta_e
318 317 317 317 316 316 314 313 314 313 313 312 312 312 312 312 313 314 315 315 314 313 314 315 316 316 316 315 315 316 316 316 316 316 316 316 316 316 317 317 317 317 318 318 317 317 316 316 315 315 314 315 314 314 314 314 313 312 312 311 311 310 309 309 308 308 308 307 307
317 317 317 318 317 315 314 313 313 313 313 312 312 312 313 313 313 314 315 315 314 314 314 315 316 315 315 315 315 315 315 315 315 315 316 316 316 316 316 316 316 317 317 318 318 318 317 316 316 315 315 315 315 315 314 314 313 312 312 311 311 310 310 309 308 308 308 307 307
316 316 316 316 315 313 312 312 311 311 311 312 312 313 314 314 314 315 315 315 315 315 315 315 316 315 315 315 315 314 314 314 315 315 315 315 315 315 315 316 316 317 318 319 319 318 318 317 317 316 315 315 315 315 314 314 314 313 311 311 311 310 310 309 308 308 307 306 306
315 315 315 315 314 313 312 311 311 311 311 312 312 313 314 315 315 315 315 316 315 315 314 315 316 316 316 315 315 314 314 315 315 315 315 316 315 315 315 316 316 316 317 318 319 318 318 318 317 316 316 316 315 315 315 315 314 313 311 310 309 309 308 308 308 307 306 306 305
315 315 314 314 314 313 312 311 311 311 311 312 312 313 314 315 315 315 314 315 315 315 315 316 316 316 316 315 314 314 314 315 316 316 316 316 315 315 316 316 316 317 318 318 318 318 318 317 317 316 316 316 315 315 314 313 312 311 309 308 308 308 308 307 307 307 306 306 305
314 314 314 314 314 313 312 311 311 311 311 312 312 313 314 315 315 315 314 314 314 315 315 316 317 316 316 314 314 314 314 315 316 316 316 316 316 315 315 316 316 317 318 318 317 317 317 316 316 315 316 315 315 313 312 311 309 308 307 307 307 307 307 307 306 306 306 305 305
314 314 314 314 314 313 312 311 311 311 311 311 311 312 314 315 314 314 313 313 314 315 316 317 317 316 315 314 313 314 314 315 316 315 316 315 315 315 315 315 316 316 317 317 317 317 316 316 315 315 314 314 312 311 310 308 307 307 307 306 307 307 307 306 306 306 306 305 304
315 315 315 314 314 313 312 312 312 311 311 311 312 313 314 315 314 314 314 314 314 315 316 317 316 315 314 314 314 314 315 315 315 315 315 313 313 314 314 315 315 316 317 317 316 316 316 315 314 313 312 311 310 309 308 307 307 307 306 306 306 306 306 307 306 306 305 305 304
314 314 314 314 313 313 312 313 312 312 312 312 312 313 314 314 314 314 314 314 315 315 316 317 316 315 314 314 314 315 315 315 315 314 313 312 312 313 313 314 314 315 316 316 315 315 314 314 312 311 309 309 308 307 307 307 307 307 306 306 306 306 305 306 306 305 305 304 304
313 314 314 313 312 312 312 312 312 312 312 312 312 313 314 314 314 314 314 314 315 315 316 316 315 315 314 314 314 315 315 315 314 313 312 311 311 312 312 313 312 313 313 314 314 313 313 312 310 309 308 307 306 306 306 307 306 306 306 306 306 306 305 305 305 304 303 303 303
313 313 313 313 312 312 312 312 312 311 312 312 312 313 313 314 314 314 314 315 315 315 315 315 315 314 314 314 315 315 315 314 313 312 311 310 311 311 311 311 311 311 311 311 312 312 311 310 309 308 307 306 306 306 306 306 306 305 305 305 306 305 305 305 304 303 303 302 302
313 313 313 313 312 312 312 311 311 311 311 312 312 313 313 313 314 314 315 315 314 314 314 315 314 315 315 314 315 315 315 314 312 312 311 310 310 310 310 310 310 310 310 310 310 310 310 309 308 307 306 305 305 305 305 305 305 305 305 305 305 305 305 305 304 303 303 302 302
312 313 313 313 312 312 311 311 311 310 311 311 312 313 313 313 314 314 314 314 314 314 314 314 314 314 314 315 314 315 314 313 312 311 311 310 310 309 309 309 309 309 309 309 309 309 309 309 308 307 306 305 305 305 305 305 305 305 305 304 305 304 304 304 303 303 302 302 302
312 312 312 312 312 311 311 311 311 310 311 311 312 312 313 313 314 314 314 314 314 314 313 313 314 314 314 315 314 314 313 313 312 311 311 310 309 308 308 308 308 308 308 309 309 309 309 309 308 307 306 305 304 304 305 304 304 304 304 304 304 304 304 304 303 303 302 302 302
312 312 312 312 311 311 311 310 310 310 310 311 311 311 312 313 313 314 314 314 314 314 314 313 313 313 314 314 314 313 313 312 311 311 310 309 308 308 307 307 307 308 308 309 309 309 309 308 307 307 306 305 304 304 304 304 304 304 304 304 304 304 304 304 303 303 303 302 302
311 311 312 312 311 311 310 310 310 310 310 311 311 311 312 312 313 313 313 314 314 314 313 313 312 313 313 315 314 313 312 311 310 310 309 308 308 307 307 307 307 308 308 309 309 309 309 308 308 307 306 305 304 304 304 304 304 304 304 304 304 304 304 304 303 303 302 302 302
311 311 311 311 311 310 310 310 310 310 310 310 311 312 312 313 312 313 313 314 314 314 313 313 312 312 313 314 313 313 312 311 310 309 308 307 307 307 307 307 307 308 308 309 309 309 308 308 308 307 306 305 305 304 304 304 304 303 303 303 303 304 304 304 303 302 302 303 303
310 311 311 311 311 310 310 310 310 310 310 310 311 312 312 312 312 313 313 314 314 313 313 313 312 312 313 313 313 313 312 311 310 309 308 307 307 307 307 307 308 308 308 309 309 308 308 307 307 307 306 305 305 304 304 303 303 302 302 302 303 303 303 303 302 302 302 303 303
310 310 311 311 310 310 310 310 309 310 310 311 311 311 312 312 312 312 313 313 313 314 314 313 313 313 313 313 313 313 312 311 310 309 309 308 307 307 307 307 307 308 308 308 308 308 307 307 306 306 306 305 305 304 303 303 302 302 302 301 302 302 302 302 302 302 302 303 303
310 310 310 310 310 310 310 310 310 310 310 311 311 311 312 312 312 312 312 313 313 314 314 313 313 313 313 313 312 312 312 312 311 310 309 308 307 307 307 307 307 307 307 307 307 307 306 306 306 305 305 304 303 303 302 302 302 301 301 301 301 301 301 301 301 301 302 302 303
310 310 310 311 310 310 310 310 309 310 310 310 311 311 311 312 311 311 312 313 313 314 314 313 312 312 312 313 312 312 312 312 311 310 308 307 307 306 307 307 307 307 307 307 306 306 305 305 305 304 304 303 303 302 302 302 301 301 301 300 300 300 300 300 300 301 301 302 302
310 310 311 311 311 311 310 310 310 310 310 310 310 311 311 311 311 311 312 313 313 313 313 312 312 312 312 312 312 312 312 312 311 310 308 307 306 307 307 306 306 306 306 306 305 305 305 304 304 303 303 303 303 302 302 302 301 301 301 301 301 301 300 300 300 300 301 301 301
311 311 311 311 311 311 311 310 310 310 310 310 310 311 310 310 310 311 311 312 313 313 312 312 312 312 312 312 312 312 312 311 310 309 308 306 306 306 306 306 305 305 305 305 305 304 304 303 303 303 303 303 303 302 302 302 302 301 301 301 301 300 300 300 300 300 300 300 300
311 311 311 311 311 310 310 310 310 309 309 309 310 310 310 310 310 311 311 311 312 312 312 312 311 312 312 312 312 312 311 311 310 308 307 306 306 305 305 305 305 304 304 305 305 305 305 304 303 303 304 303 303 302 302 302 302 301 301 301 301 300 300 300 300 300 300 300 300
311 311 311 311 310 310 310 310 310 309 309 309 310 310 310 310 310 310 310 310 311 311 311 311 311 311 312 312 312 312 311 310 309 308 307 305 305 305 305 304 304 304 305 308 312 313 311 309 306 304 303 303 302 302 302 301 301 301 301 301 301 300 300 300 300 301 301 302 302
311 311 311 310 310 310 310 309 310 309 309 309 310 310 309 309 309 309 310 310 310 311 311 311 311 311 311 312 311 312 311 311 309 308 306 306 305 304 304 304 305 305 307 313 316 317 315 314 311 307 304 302 302 302 301 301 301 301 301 301 301 300 300 300 301 301 302 303 304
311 311 310 310 310 310 310 309 310 310 310 309 310 309 309 309 309 309 309 309 310 310 311 311 311 311 311 311 311 311 311 310 309 308 307 306 305 305 304 305 305 306 309 315 317 317 316 315 313 310 306 303 302 302 301 302 301 301 301 300 300 300 300 301 301 302 303 304 304
311 311 310 310 310 310 309 309 309 309 309 309 309 309 309 309 308 309 309 309 309 310 310 310 310 311 311 311 311 311 311 310 309 308 307 306 306 305 305 305 305 308 311 316 316 316 315 315 313 312 309 305 302 302 302 302 302 301 301 300 300 300 300 301 302 302 303 303 303
312 311 311 310 310 310 309 309 309 308 309 309 309 309 309 308 308 308 309 309 309 309 310 310 310 310 310 310 311 311 311 310 309 308 306 306 306 306 305 305 306 309 313 316 316 315 315 314 314 313 311 308 304 303 302 302 302 301 301 301 300 300 301 301 302 302 302 302 302
312 311 310 310 310 310 309 309 308 308 309 309 309 309 309 308 308 308 308 308 309 309 309 309 309 309 309 310 311 311 311 310 309 308 306 306 306 306 306 307 307 309 313 316 316 315 315 314 314 313 312 309 305 303 302 302 301 301 300 300 300 300 300 301 301 302 302 302 302
312 311 310 310 309 309 309 309 308 308 308 309 309 309 308 308 307 308 308 308 308 309 310 309 309 309 309 310 310 311 311 310 309 308 307 306 308 307 306 306 307 309 313 316 315 315 315 314 313 313 312 310 306 303 302 301 301 300 300 300 300 300 301 301 302 302 302 301 301
312 311 311 310 309 309 309 309 308 308 308 308 308 308 308 307 307 308 308 308 309 309 309 309 308 308 309 309 310 310 310 310 309 307 307 307 307 307 307 307 307 309 313 316 315 315 315 314 313 312 312 310 307 303 301 301 301 300 300 300 300 301 301 302 302 302 301 301 301
311 311 310 310 309 309 309 309 308 308 308 308 308 308 308 308 307 308 308 308 309 309 308 308 308 308 308 309 309 309 310 310 309 309 308 308 308 308 307 307 307 310 313 316 316 315 314 314 313 312 311 310 306 303 301 301 301 301 301 300 300 300 301 301 301 301 301 301 301
310 310 310 310 309 309 309 308 308 308 307 307 307 307 307 307 307 307 308 308 308 309 308 308 309 309 309 309 309 309 309 310 309 308 308 308 308 308 308 307 308 311 315 316 315 315 314 314 313 312 311 310 305 302 301 300 301 301 300 300 300 300 300 300 300 301 301 300 301
310 310 310 310 309 309 308 308 308 307 307 307 307 307 307 307 307 307 308 308 309 309 309 309 309 309 309 309 309 309 309 309 309 308 308 308 308 308 308 307 308 311 315 316 316 315 315 314 313 312 310 308 303 301 300 301 301 300 300 300 300 300 300 300 300 300 300 300 300
310 309 309 309 309 309 309 308 307 307 307 307 307 307 307 307 307 307 308 309 309 308 308 308 309 309 309 309 309 309 309 308 308 308 309 309 309 308 308 307 308 312 315 316 315 315 315 314 313 311 309 305 302 300 301 301 301 301 300 300 300 299 299 299 300 300 300 300 300
310 309 309 309 309 309 309 308 307 307 306 306 306 306 307 307 307 308 308 309 308 308 308 308 308 308 308 308 309 309 309 309 308 309 309 310 309 309 308 308 308 311 314 316 315 315 314 314 312 311 308 303 301 300 301 301 301 301 300 300 299 299 299 299 299 300 300 299 300
310 310 309 309 309 309 308 308 307 307 306 306 306 306 306 306 307 308 308 309 308 307 307 308 308 308 308 309 309 309 309 309 309 309 309 310 310 309 308 308 308 310 313 315 315 315 314 313 312 310 306 302 300 300 301 301 301 301 300 300 299 299 299 299 299 300 300 300 303
311 310 309 308 308 308 308 308 307 307 307 307 307 306 306 306 307 307 308 309 308 307 307 307 308 308 309 309 309 309 309 309 310 310 310 309 310 310 309 308 309 310 313 315 315 314 314 313 312 310 307 303 301 300 301 301 301 300 300 300 299 299 299 299 299 300 300 302 306
311 310 309 309 308 308 308 308 307 307 307 307 306 306 306 306 307 308 308 309 308 308 307 307 308 308 309 310 309 309 309 309 310 310 310 310 311 311 311 309 309 310 312 314 315 314 314 312 311 310 307 303 301 301 301 301 301 300 300 300 300 299 299 299 299 299 300 301 305
312 311 310 309 308 308 307 308 308 308 307 307 307 306 307 307 307 307 308 308 308 308 308 307 308 308 309 310 309 309 309 309 310 310 311 311 312 312 312 309 309 310 311 313 314 314 313 312 311 310 307 303 301 301 302 301 301 300 300 300 300 300 299 299 299 299 300 300 302
Wind_Speed
3 3 4 4 3 3 3 3 4 4 4 4 4 4 4 4 4 4 5 5 4 4 3 3 3 4 4 5 6 6 6 6 6 7 7 7 6 7 7 8 8 8 8 8 8 8 8 8 7 5 5 5 6 6 6 6 6 6 6 6 6 7 7 7 6 6 6 6 5
3 3 4 4 4 3 3 3 4 4 4 3 4 4 4 4 4 4 5 5 4 4 3 3 4 4 5 6 6 6 6 6 7 7 7 7 7 7 7 7 8 8 9 9 8 7 7 7 6 5 5 5 5 6 6 6 6 7 7 8 7 7 7 7 6 6 6 6 5
3 3 3 4 4 3 3 3 3 4 4 3 3 4 4 4 4 4 5 5 5 4 4 3 4 5 5 6 6 6 6 6 7 6 6 6 6 6 6 7 8 9 9 8 8 7 7 7 6 5 5 5 5 6 6 6 7 7 7 8 7 6 6 6 6 6 5 5 5
3 3 3 4 4 4 4 3 4 4 4 3 4 4 4 4 4 4 4 5 5 4 4 4 5 5 6 6 6 6 6 7 7 6 5 5 5 6 6 7 8 9 9 8 8 7 7 7 5 5 5 6 6 6 6 6 7 6 6 6 5 5 5 5 5 5 5 5 5
3 3 3 3 4 4 4 4 4 4 4 3 3 4 4 4 4 4 4 5 5 4 4 5 5 5 6 6 7 7 7 7 7 6 5 5 5 6 6 7 8 9 9 9 8 8 8 8 6 5 5 6 6 5 5 6 6 5 4 4 4 4 4 5 5 5 5 5 5
3 3 2 3 4 4 4 4 4 4 4 3 4 4 4 4 4 5 5 5 5 5 6 6 6 6 7 7 7 7 7 7 7 6 6 6 6 6 7 8 8 9 9 9 9 9 9 8 6 6 6 6 5 5 5 5 4 4 4 4 4 4 4 5 5 5 5 5 5
3 3 2 3 4 4 4 4 4 4 4 3 4 4 4 5 6 6 6 5 5 5 6 6 6 6 7 7 7 7 7 7 7 7 7 7 7 7 8 8 9 9 10 9 9 8 8 6 5 5 6 5 4 5 5 5 5 5 5 5 4 4 5 5 5 5 6 7 7
3 3 3 3 4 4 4 4 4 4 4 3 4 5 5 6 7 7 6 5 5 5 5 6 7 7 7 7 7 7 7 8 8 8 7 6 7 8 8 9 9 10 10 9 8 7 7 5 4 4 5 4 4 5 6 7 7 6 6 5 4 4 4 5 5 5 6 8 7
3 3 3 3 3 4 4 5 5 4 4 4 4 5 5 6 7 7 6 5 5 5 5 6 8 8 8 8 8 8 8 8 9 8 7 7 7 8 8 8 9 9 9 8 8 7 6 5 4 4 4 4 4 5 7 8 8 7 7 6 5 4 4 4 5 5 6 7 7
3 3 3 3 3 3 4 5 5 5 4 4 4 5 6 7 6 6 5 5 5 5 6 7 8 9 9 8 8 8 8 8 8 8 7 7 7 7 8 8 8 8 8 7 7 6 6 4 5 5 4 4 5 6 7 8 8 8 7 5 5 6 6 5 5 6 6 6 7
4 4 4 3 3 4 4 4 4 4 4 4 4 5 6 6 6 5 5 5 5 6 7 8 9 9 9 8 8 8 8 8 7 7 7 6 7 7 8 8 8 8 7 6 5 5 5 4 5 6 6 5 6 7 8 8 9 8 7 5 6 7 7 6 6 6 5 6 7
5 5 4 4 4 4 4 4 4 4 4 4 5 5 5 5 5 5 5 5 6 6 7 8 9 9 9 8 8 8 8 8 7 7 6 6 7 7 7 8 8 8 7 6 5 4 4 5 6 7 7 6 6 6 8 9 9 8 8 7 8 8 8 7 7 6 5 6 7
5 5 5 5 4 4 4 4 3 3 3 4 5 5 5 5 5 5 5 5 6 6 6 7 8 9 9 8 8 8 8 8 7 7 6 6 6 7 7 8 8 7 7 6 5 5 5 6 7 7 7 7 6 7 8 9 8 8 8 8 8 8 8 8 7 7 6 7 7
6 5 5 5 5 4 4 4 3 3 3 4 4 5 5 5 5 5 5 5 5 6 6 6 6 7 8 8 8 8 8 8 7 7 6 6 6 7 7 8 8 7 6 6 5 6 6 7 7 7 7 7 7 7 8 8 8 8 8 9 9 9 8 8 8 8 8 8 8
6 6 6 5 5 4 4 4 3 3 3 3 4 4 4 4 4 4 4 4 5 5 5 5 5 6 7 9 8 8 8 7 7 6 6 6 6 7 7 8 8 7 7 6 6 6 7 7 7 7 7 8 8 8 8 8 8 8 8 8 8 8 8 8 8 8 8 9 8
7 6 6 6 5 4 4 3 3 3 3 3 3 3 4 4 4 4 4 4 4 4 5 5 5 5 6 8 9 9 8 7 6 6 5 6 6 7 7 8 8 7 7 7 6 6 6 7 7 7 7 8 8 8 8 8 8 7 7 8 8 8 8 8 8 8 8 9 8
7 7 6 6 6 5 4 4 3 3 3 3 3 3 3 3 3 3 3 4 3 4 5 5 5 5 6 7 9 9 8 6 5 5 5 6 6 7 8 8 8 8 8 8 7 7 7 7 7 7 7 8 8 8 8 8 7 7 7 8 8 8 8 8 8 8 8 9 9
7 7 6 6 6 6 5 4 4 4 4 4 4 4 4 3 3 3 3 3 4 4 5 5 5 5 6 7 9 8 8 6 5 5 5 6 6 7 8 8 8 8 8 8 8 8 8 8 7 7 7 7 7 7 7 7 7 7 7 8 8 8 8 8 8 8 8 9 9
8 7 7 7 7 6 6 5 5 5 5 5 5 4 4 4 4 3 3 3 4 4 5 5 5 5 6 8 9 9 8 7 6 6 5 6 6 7 7 8 8 8 8 8 8 8 8 7 7 7 7 6 6 6 6 6 6 6 7 8 8 8 8 8 8 8 8 9 9
8 8 7 7 7 7 6 6 5 5 5 5 5 5 5 5 5 4 4 4 4 4 5 5 5 6 7 8 9 9 9 7 7 6 6 6 6 6 7 8 8 8 8 8 8 8 7 7 7 7 7 6 6 6 6 6 6 7 7 7 7 7 7 8 8 8 8 9 9
8 8 8 8 7 7 7 6 6 6 6 6 6 6 6 6 5 5 5 4 4 5 5 5 5 6 7 7 9 9 9 7 7 7 6 6 6 6 7 8 8 8 8 8 8 8 7 7 7 6 6 6 6 7 7 7 7 7 7 6 6 6 7 7 8 8 8 9 9
7 7 8 8 7 7 7 7 6 6 6 6 6 6 6 6 6 5 5 4 4 5 5 5 5 5 6 7 8 8 8 7 7 6 6 6 6 6 6 7 8 8 8 8 8 8 7 7 7 6 7 7 7 8 8 7 7 7 7 7 7 7 7 7 7 7 8 8 8
8 8 7 7 7 7 7 7 7 7 7 7 7 6 6 6 6 5 5 4 5 5 5 4 4 5 6 6 7 8 8 8 7 6 6 6 6 6 6 6 7 8 8 8 8 8 7 7 7 7 8 8 8 8 8 8 8 7 7 7 7 7 7 7 7 7 7 7 7
8 8 7 6 6 7 7 7 7 7 8 7 7 7 7 7 6 6 5 5 5 5 5 4 4 5 5 6 6 7 8 9 8 7 7 7 7 6 6 6 6 7 7 6 7 8 7 6 7 7 8 8 8 8 7 7 7 7 7 8 8 7 7 7 8 8 7 7 6
7 8 7 7 7 7 7 7 7 8 8 8 8 7 7 7 7 7 6 6 6 6 5 5 5 5 5 6 6 7 8 8 9 8 7 7 7 7 6 5 5 5 6 7 10 11 11 9 8 7 7 7 7 7 7 7 7 7 7 7 8 8 8 8 8 8 8 8 7
7 8 8 7 7 7 7 7 7 8 8 8 8 8 8 7 7 7 7 7 6 6 6 6 5 6 6 6 6 7 7 7 8 8 8 8 8 7 5 5 5 4 5 9 13 14 14 13 12 10 8 7 7 7 7 6 7 7 7 7 7 8 8 8 8 8 8 8 7
7 8 8 7 7 7 7 6 7 7 8 8 9 8 8 8 7 7 7 7 7 7 6 6 6 6 6 6 6 7 7 7 7 7 8 8 8 7 6 5 5 4 6 11 15 16 17 17 16 14 11 8 8 7 7 6 7 7 7 7 7 8 8 9 9 9 8 8 8
7 8 8 8 8 7 7 6 6 7 8 9 9 9 8 8 8 8 7 7 7 7 6 6 6 6 6 6 7 7 8 7 7 7 7 8 8 8 7 6 5 6 9 14 17 18 19 19 18 16 14 10 8 7 7 7 7 7 6 6 7 7 8 8 9 9 9 8 7
7 8 8 8 8 7 7 7 7 7 8 9 9 9 9 9 8 8 8 8 7 7 6 5 5 5 5 6 7 7 8 7 7 6 6 7 8 8 8 7 6 8 11 16 18 19 20 20 20 18 16 12 8 7 6 6 6 6 6 6 6 6 7 7 8 8 8 8 8
7 8 8 8 8 8 7 7 7 7 7 8 8 9 9 9 9 8 8 8 8 7 6 5 5 5 6 7 7 7 7 7 6 6 6 8 8 9 9 8 7 8 12 17 18 19 20 20 20 19 17 14 10 7 6 6 6 6 5 5 6 7 7 8 9 9 8 8 8
8 8 8 8 8 8 7 7 7 7 7 7 8 9 9 9 9 9 8 8 8 7 6 6 6 6 7 7 7 7 7 7 6 6 7 8 9 9 9 9 8 9 12 17 18 19 19 20 19 19 18 15 11 8 6 6 6 6 5 6 6 7 8 8 9 9 9 9 8
9 8 8 8 8 8 8 8 7 7 7 8 8 8 9 9 9 8 8 8 7 7 7 7 7 7 7 7 7 7 7 7 7 7 7 8 9 9 10 10 8 9 12 17 17 18 19 19 19 19 18 16 11 8 7 6 6 6 6 7 7 7 8 7 8 9 9 9 9
9 9 9 8 8 8 8 8 8 7 8 8 8 8 8 8 8 8 8 8 7 8 8 8 8 8 8 8 8 8 8 8 8 8 8 8 9 10 10 10 8 10 13 17 17 18 18 19 19 19 18 16 11 8 7 6 6 6 6 6 7 7 8 8 8 8 9 9 8
9 10 9 9 8 8 8 8 8 8 8 8 8 8 8 8 8 8 8 8 7 7 7 7 8 8 7 7 7 7 8 8 8 8 8 8 9 10 10 9 7 10 14 17 18 18 18 19 19 19 18 15 10 8 7 7 6 6 6 7 7 7 7 7 8 8 8 9 8
9 10 10 9 9 8 8 8 8 8 8 8 8 8 8 8 8 8 8 8 7 7 6 7 7 7 7 6 7 7 8 8 8 8 9 9 9 10 10 9 8 12 16 18 18 18 18 18 19 18 17 13 8 7 7 7 7 7 7 8 7 7 7 7 7 8 8 9 9
10 10 10 10 9 9 9 9 9 9 9 9 9 8 8 8 8 8 8 8 8 7 7 7 7 8 8 7 7 8 8 8 8 9 9 9 10 10 11 10 10 13 17 18 18 18 18 18 19 18 15 10 7 6 6 6 6 7 8 8 7 7 7 7 7 8 8 8 9
10 10 10 10 10 10 9 9 9 9 9 9 9 9 8 8 8 8 8 8 8 7 7 7 8 8 8 8 8 8 8 8 9 9 9 9 10 11 11 11 11 13 17 19 19 18 18 19 19 17 14 9 7 6 6 6 6 6 7 7 7 7 7 7 7 8 8 8 9
10 10 10 11 10 10 10 9 9 10 10 9 9 8 8 8 8 8 8 8 7 7 8 8 8 8 8 9 9 9 9 9 9 9 9 10 10 11 11 11 11 13 15 18 19 19 19 19 19 17 13 8 7 7 7 6 6 6 6 6 6 6 6 6 6 7 8 9 11
10 10 10 11 11 11 11 10 10 10 9 9 8 8 8 7 7 8 8 8 7 7 7 8 8 8 8 9 9 9 10 10 10 10 10 9 10 11 12 12 12 12 14 18 20 20 20 19 19 17 14 9 7 7 7 7 7 6 6 6 5 5 6 6 6 6 8 10 14
10 10 10 11 11 11 11 11 10 9 9 9 9 8 8 8 7 8 8 7 7 7 7 8 8 8 9 10 9 10 10 10 10 10 10 10 10 12 13 12 12 12 14 18 20 20 20 20 19 18 14 9 7 7 7 7 7 7 7 6 6 5 5 5 6 6 7 9 13
9 10 10 10 11 11 11 11 11 9 9 8 9 8 8 8 8 8 8 7 7 7 7 7 8 9 9 10 9 9 10 11 11 11 11 11 11 12 13 12 12 13 14 17 20 21 21 21 20 18 15 9 7 7 7 7 8 8 7 6 6 6 6 5 5 6 6 6 8
Wind_Direction
131 139 143 144 134 125 118 119 125 130 135 139 141 142 145 146 146 142 139 138 142 144 145 143 140 139 137 135 129 125 125 127 130 134 139 147 152 149 145 139 137 136 134 131 126 124 123 126 128 130 132 131 128 127 129 135 140 141 140 137 135 134 135 136 140 141 137 128 122
131 138 141 137 123 111 106 110 118 123 128 133 136 139 142 144 144 139 136 136 140 142 140 139 137 137 135 132 129 128 129 131 132 137 144 155 156 152 146 142 140 139 136 131 129 128 131 135 137 138 138 136 135 136 141 149 153 155 153 149 144 143 144 145 146 142 135 124 120
123 131 134 129 116 110 109 113 119 123 127 130 134 137 141 144 141 136 133 135 138 138 138 138 137 136 134 132 131 132 133 134 135 142 151 162 156 151 146 144 141 137 134 131 132 134 137 142 144 143 142 141 143 148 154 163 167 166 161 154 150 148 148 147 143 137 129 121 118
105 118 126 127 121 118 117 122 126 127 127 130 133 136 139 142 136 131 130 132 135 137 139 140 138 137 136 135 136 137 137 136 140 148 158 162 153 149 147 145 140 135 132 131 134 138 143 148 147 145 144 147 152 157 164 170 173 169 160 152 146 142 139 136 132 127 122 119 117
92 102 116 126 125 121 119 123 128 129 129 131 134 140 142 138 129 126 127 132 139 144 144 139 137 137 139 140 140 140 139 141 148 155 162 160 153 151 149 146 139 135 133 134 139 145 150 153 149 147 149 154 159 166 169 169 165 155 141 132 130 129 127 124 122 120 118 117 116
90 90 98 116 121 118 117 123 127 128 130 134 141 145 143 138 131 130 133 138 145 146 142 135 134 136 140 142 142 143 145 148 154 160 162 159 156 153 150 145 139 136 135 139 145 151 156 157 151 150 153 158 162 162 158 149 134 120 110 107 111 114 117 120 121 120 119 119 119
97 96 101 114 123 124 125 127 124 126 129 139 148 149 145 138 134 135 137 142 146 146 141 135 135 138 142 144 145 147 151 154 158 160 160 159 157 155 151 145 139 137 138 143 150 155 159 157 150 149 153 155 153 146 138 127 117 110 107 107 109 112 115 118 120 121 121 122 124
103 103 108 118 127 132 135 134 129 129 135 151 155 150 144 137 136 138 141 145 149 147 141 137 139 141 144 146 149 153 156 157 157 157 157 157 156 153 148 143 139 139 141 147 153 158 159 154 146 144 145 143 138 133 128 123 119 116 115 114 114 114 115 118 118 120 122 125 126
111 110 111 117 127 135 141 141 136 137 146 160 158 149 141 136 137 140 145 151 151 147 142 138 140 143 145 148 154 157 159 156 153 152 153 156 154 150 145 140 138 139 143 150 156 157 155 143 135 133 133 132 132 132 130 127 124 122 121 120 119 116 114 113 115 116 119 121 120
126 121 119 119 127 136 142 142 141 144 152 160 155 146 140 139 140 144 151 156 151 147 143 142 143 145 148 153 159 160 158 152 149 148 151 155 153 148 143 138 137 139 143 152 155 152 144 129 126 127 129 130 132 132 130 128 126 125 125 126 124 120 117 115 115 115 116 116 114
133 130 127 126 132 138 140 140 144 149 155 158 152 146 143 143 145 150 156 157 152 148 147 146 146 147 150 157 162 160 155 148 146 148 152 155 152 147 141 136 136 139 144 150 148 140 131 123 126 129 132 134 133 131 129 127 126 126 127 128 126 125 124 124 123 121 118 116 114
136 131 128 128 134 137 138 138 145 152 157 155 154 152 149 148 151 156 158 158 154 151 150 149 148 149 152 158 161 158 150 144 145 149 154 157 151 144 138 135 137 140 143 146 140 132 127 128 132 135 137 136 134 130 128 127 127 128 130 130 130 130 131 132 131 129 125 121 119
135 131 128 130 135 138 139 139 145 152 157 158 159 158 156 153 156 158 161 161 157 154 152 152 151 151 153 157 158 154 147 144 148 153 158 158 149 142 137 137 139 140 140 140 135 132 132 134 138 140 140 138 134 131 129 129 130 132 133 134 134 136 137 139 139 136 131 127 126
135 132 131 133 137 139 140 141 145 151 157 159 162 161 158 156 160 161 163 165 160 156 153 154 154 154 154 155 153 149 145 145 151 156 158 156 146 140 138 139 139 139 138 138 136 136 138 140 143 143 142 139 134 132 132 132 134 136 137 138 139 140 141 143 142 139 136 133 132
136 136 135 136 139 140 141 142 144 149 155 158 161 159 158 159 163 164 165 166 161 157 156 157 159 157 154 150 146 143 143 147 153 156 156 151 143 140 139 139 138 138 138 140 141 141 143 144 146 145 144 140 136 135 134 136 138 140 141 141 141 141 142 142 142 140 138 137 135
140 139 139 140 142 143 144 144 143 146 150 155 158 157 158 161 163 165 164 164 161 159 159 162 163 159 152 146 141 140 143 150 155 156 154 148 144 142 141 139 139 139 141 144 145 146 146 147 148 147 145 141 139 138 138 140 143 143 142 141 139 139 139 140 140 139 138 136 135
143 143 143 143 146 147 148 148 144 145 148 152 155 158 157 158 163 167 168 164 160 160 163 167 167 161 151 143 139 140 144 152 156 157 154 150 148 146 143 141 141 143 145 147 147 148 148 148 149 148 146 143 142 142 143 146 146 145 142 138 136 136 137 138 138 136 134 133 133
147 147 147 147 149 150 152 152 148 148 149 154 158 158 157 155 165 173 174 167 161 162 164 168 168 162 153 145 141 142 146 153 158 159 158 156 154 150 147 143 144 145 147 148 148 148 148 149 148 147 145 144 144 145 146 146 144 140 136 133 133 134 135 136 135 133 132 131 133
150 151 151 151 152 153 154 155 153 153 155 157 160 159 157 156 166 176 180 172 167 164 164 167 168 164 157 150 145 145 147 153 158 161 162 163 159 154 149 146 146 146 147 146 146 146 146 146 146 145 144 145 144 143 140 136 131 127 125 126 129 131 133 134 133 131 131 131 133
154 155 155 155 154 154 156 157 157 157 158 159 162 160 157 155 166 178 184 180 173 167 165 166 168 167 161 154 148 147 148 153 158 163 166 167 163 157 152 148 146 146 145 144 143 143 142 142 142 142 142 140 135 129 122 115 111 110 111 115 119 123 127 129 129 129 129 131 133
157 158 158 157 155 156 157 158 159 160 160 160 162 160 156 154 165 177 186 184 177 171 167 168 173 171 166 159 153 150 150 153 159 164 168 169 165 160 154 149 147 145 143 141 140 140 140 139 139 136 131 123 117 111 107 104 101 100 99 100 103 107 112 117 121 124 127 129 132
160 161 160 157 156 156 157 158 159 160 161 163 163 160 157 156 163 173 181 183 179 174 171 171 177 177 172 165 158 154 153 155 160 165 168 167 164 160 155 149 145 142 141 140 140 139 138 136 130 122 114 106 103 102 102 102 101 98 96 93 92 93 95 100 108 114 119 124 128
162 161 160 158 156 156 157 158 159 160 162 164 164 162 159 158 162 168 175 180 180 176 172 171 180 183 181 173 163 158 156 158 162 165 165 163 160 157 153 147 144 142 141 141 140 138 135 129 120 112 106 103 101 101 102 104 104 102 100 96 92 89 88 90 94 99 104 110 115
161 161 161 158 157 156 157 158 159 161 163 165 165 163 161 160 163 167 173 179 179 175 171 173 182 187 186 181 171 165 162 162 164 164 162 158 155 153 151 146 142 140 139 138 137 135 131 124 117 112 108 105 104 104 105 106 107 107 105 102 98 93 89 86 86 86 87 88 93
161 161 160 158 157 157 158 160 161 162 163 165 164 163 161 161 166 169 174 178 178 173 170 172 182 188 190 187 179 173 169 168 167 163 158 153 151 149 146 138 132 130 131 132 132 129 126 122 118 114 111 109 108 107 106 107 108 108 108 107 104 100 94 88 84 81 80 81 85
161 161 161 160 159 159 162 163 162 162 162 162 162 162 161 163 168 171 174 177 176 173 170 172 182 189 192 192 185 179 175 174 170 163 156 150 147 143 134 122 117 118 124 129 128 125 121 116 114 113 112 112 112 110 108 106 107 107 108 108 108 106 102 97 91 86 84 83 86
161 162 162 162 162 163 164 165 163 161 159 160 161 161 162 164 168 172 175 177 174 171 169 172 184 191 194 196 190 184 180 177 172 163 155 148 143 134 121 108 109 114 123 128 125 122 118 115 114 113 113 114 114 115 115 113 111 109 108 109 110 110 109 107 103 99 95 92 89
163 162 163 164 166 166 166 165 162 160 159 160 160 160 161 163 168 172 175 176 173 169 169 172 183 191 196 197 194 188 182 178 173 165 156 148 138 127 117 110 113 121 127 127 124 122 120 119 118 118 117 115 115 116 117 118 116 115 114 114 114 113 112 112 111 109 107 104 99
164 162 163 166 168 169 168 167 164 161 159 158 158 159 160 163 168 172 175 176 173 171 170 172 180 189 197 199 196 191 184 179 175 166 155 146 133 123 117 116 121 127 129 128 125 123 123 123 123 122 120 117 116 117 119 121 121 121 120 120 119 118 116 116 117 116 115 114 111
164 164 165 167 169 170 170 169 167 162 158 155 156 158 160 164 168 172 175 177 175 173 171 169 176 187 196 200 197 192 185 181 176 168 157 147 135 126 121 123 129 134 134 132 128 127 126 126 125 124 122 119 118 118 121 124 125 125 125 125 123 122 121 122 122 123 123 123 120
164 165 166 167 169 170 171 171 167 162 158 155 156 158 161 164 168 173 176 177 176 173 171 169 175 185 195 200 198 193 188 181 176 169 160 151 139 131 127 129 134 138 138 137 132 130 129 128 127 126 124 123 121 122 125 127 127 128 128 129 127 126 126 126 128 129 130 129 126
162 164 166 168 169 170 171 169 167 163 160 157 158 160 162 165 168 172 174 175 174 173 172 172 176 184 192 200 199 196 190 183 177 171 164 155 142 134 131 133 140 144 144 142 137 134 132 131 129 128 127 126 124 125 127 128 128 128 127 127 128 129 130 132 133 134 133 130 127
160 162 165 168 170 171 170 169 168 165 163 161 160 161 162 163 166 169 172 174 175 175 175 175 178 183 189 196 196 194 190 186 178 172 165 156 144 137 134 136 143 149 149 147 142 138 136 134 132 131 130 129 127 126 127 127 127 126 126 125 127 130 132 134 134 133 131 127 125
161 162 164 167 169 170 170 169 168 167 166 165 164 163 163 162 165 168 172 174 175 176 177 178 180 183 188 193 192 189 187 187 180 174 166 158 147 141 139 141 148 154 155 151 147 143 140 137 135 133 132 130 128 127 127 126 125 125 125 126 127 130 132 133 131 128 125 123 122
163 163 164 165 166 168 169 169 169 169 169 169 168 166 164 164 166 169 171 173 174 175 177 179 182 184 187 191 190 187 185 185 182 177 170 162 151 145 143 144 151 157 158 155 151 147 144 141 138 136 134 131 128 126 126 125 125 126 127 127 129 130 131 129 126 123 121 121 123
164 164 163 165 165 167 169 170 171 172 173 173 171 169 168 167 168 169 170 171 171 174 176 179 182 184 186 189 189 188 186 185 184 181 174 166 155 149 146 147 153 159 161 157 154 151 148 145 142 138 135 130 128 126 126 126 127 128 128 128 130 130 130 127 124 122 121 122 126
166 164 163 164 165 167 168 171 173 176 177 176 174 172 171 169 169 170 171 170 171 173 177 179 182 184 185 186 187 187 187 186 185 183 179 170 160 152 149 149 155 161 162 160 157 154 151 149 145 141 137 131 130 129 128 128 129 129 128 127 128 128 127 125 124 124 124 127 130
168 165 163 164 165 167 169 172 176 179 181 179 176 175 173 171 170 172 172 171 171 173 177 180 183 184 185 184 186 187 187 187 187 186 182 175 164 155 151 151 157 162 163 162 159 157 155 152 148 144 141 135 135 133 132 132 132 131 129 128 125 123 122 123 125 127 130 134 137
171 168 165 164 165 166 170 174 179 182 183 180 178 176 175 173 173 174 174 172 171 172 176 179 183 184 184 183 184 186 187 188 189 188 185 179 167 158 153 153 158 162 164 164 161 159 157 155 151 148 144 139 138 137 136 135 135 134 131 128 124 120 119 120 124 130 136 140 142
173 172 169 166 165 166 170 176 180 182 182 181 179 178 176 175 175 174 174 171 170 172 175 179 183 184 184 183 184 185 187 188 189 189 187 182 171 161 156 155 160 163 165 165 163 161 159 157 154 151 148 141 141 139 138 138 137 136 134 132 128 124 121 120 124 130 136 140 142
174 174 173 169 166 166 169 175 179 181 182 183 182 180 178 176 175 174 173 172 173 174 176 179 182 184 185 184 183 184 186 187 188 188 187 184 174 165 160 157 161 164 166 166 164 162 161 159 157 154 151 145 144 142 141 140 139 139 139 137 135 131 127 124 124 127 131 135 138